Location: Curupao
(10.4996°N, 66.6442°W)
Time: 22:13:18
(UTC+00:00)

CZ-4C R/B - Pass Details

Date: 23 May 2024
Orbit: 527 x 1466 km, 63.4° (Epoch: 25 June)

Event Time Altitude Azimuth Distance (km) Brightness Sun altitude
Exits shadow 08:19:02 50° 352° (N) 696 1.8 -24.2°
Drops below altitude 10° 08:22:18 10° 17° (NNE) 1,889 4.6 -23.5°
Sets 08:24:41 0° 20° (NNE) 2,880 5.7 -23.0°
